Hourly Weather Holm

Today, 13 April, Tuesday

Time Temperature Precipitation Wind Pressure Humidity
00:00 +10°C° 0.6 mm 1 mps 750 mmHg 93%
01:00 +10°C° 0.6 mm 1 mps 749 mmHg 95%
02:00 +10°C° 0.6 mm 1 mps 749 mmHg 96%
03:00 +10°C° 0.2 mm 1 mps 749 mmHg 97%
04:00 +10°C° 0.2 mm 1 mps 749 mmHg 97%
05:00 +10°C° 0.2 mm 1 mps 749 mmHg 97%
06:00 +10°C° 0 mm 1 mps 749 mmHg 93%
07:00 +11°C° 0 mm 1 mps 749 mmHg 90%
08:00 +11°C° 0 mm 0 mps 749 mmHg 83%
09:00 +14°C° 0 mm 1 mps 749 mmHg 78%
10:00 +15°C° 0 mm 1 mps 749 mmHg 73%
11:00 +16°C° 0 mm 2 mps 749 mmHg 69%
12:00 +17°C° 0 mm 2 mps 748 mmHg 66%
13:00 +17°C° 0 mm 3 mps 748 mmHg 63%
14:00 +18°C° 0 mm 3 mps 748 mmHg 59%
15:00 +17°C° 0.3 mm 3 mps 748 mmHg 67%
16:00 +16°C° 0.3 mm 3 mps 747 mmHg 74%
17:00 +14°C° 0.3 mm 2 mps 747 mmHg 81%
18:00 +15°C° 0.1 mm 2 mps 747 mmHg 78%
19:00 +14°C° 0.1 mm 2 mps 747 mmHg 82%
20:00 +13°C° 0.1 mm 2 mps 747 mmHg 87%
21:00 +12°C° 0 mm 2 mps 747 mmHg 88%
22:00 +12°C° 0 mm 2 mps 747 mmHg 89%
23:00 +10°C° 0 mm 2 mps 747 mmHg 90%

Tomorrow, 14 April, Wednesday

Time Temperature Precipitation Wind Pressure Humidity
00:00 +10°C° 0 mm 2 mps 746 mmHg 91%
01:00 +10°C° 0 mm 2 mps 746 mmHg 93%
02:00 +9°C° 0 mm 2 mps 746 mmHg 94%
03:00 +9°C° 0 mm 2 mps 746 mmHg 94%
04:00 +9°C° 0 mm 2 mps 746 mmHg 95%
05:00 +9°C° 0 mm 2 mps 746 mmHg 95%
06:00 +9°C° 0 mm 2 mps 746 mmHg 92%
07:00 +10°C° 0 mm 2 mps 746 mmHg 90%
08:00 +10°C° 0 mm 2 mps 746 mmHg 88%
09:00 +12°C° 0 mm 2 mps 746 mmHg 83%
10:00 +13°C° 0 mm 2 mps 746 mmHg 79%
11:00 +13°C° 0 mm 3 mps 746 mmHg 75%
12:00 +13°C° 0.1 mm 3 mps 746 mmHg 70%
13:00 +14°C° 0.1 mm 3 mps 746 mmHg 66%
14:00 +16°C° 0.1 mm 2 mps 745 mmHg 62%
15:00 +16°C° 0 mm 2 mps 745 mmHg 62%
16:00 +16°C° 0 mm 1 mps 745 mmHg 62%
17:00 +16°C° 0 mm 1 mps 745 mmHg 61%
18:00 +14°C° 0.1 mm 1 mps 745 mmHg 70%
19:00 +13°C° 0.1 mm 1 mps 745 mmHg 79%
20:00 +10°C° 0.1 mm 2 mps 745 mmHg 88%
21:00 +10°C° 0.3 mm 2 mps 745 mmHg 89%
22:00 +10°C° 0.3 mm 2 mps 745 mmHg 91%
23:00 +10°C° 0.3 mm 2 mps 745 mmHg 93%

Day after tomorrow, 15 April, Thursday

Time Temperature Precipitation Wind Pressure Humidity
00:00 +10°C° 0.2 mm 2 mps 745 mmHg 93%
01:00 +10°C° 0.2 mm 2 mps 745 mmHg 93%
02:00 +10°C° 0.2 mm 3 mps 744 mmHg 93%
03:00 +10°C° 0.2 mm 2 mps 744 mmHg 94%
04:00 +9°C° 0.2 mm 2 mps 744 mmHg 94%
05:00 +9°C° 0.2 mm 2 mps 744 mmHg 95%
06:00 +9°C° 0.1 mm 2 mps 745 mmHg 94%
07:00 +9°C° 0.1 mm 2 mps 745 mmHg 93%
08:00 +10°C° 0.1 mm 2 mps 745 mmHg 93%
09:00 +10°C° 0.1 mm 2 mps 745 mmHg 88%
10:00 +12°C° 0.1 mm 2 mps 745 mmHg 84%
11:00 +13°C° 0.1 mm 2 mps 745 mmHg 80%
12:00 +14°C° 0.3 mm 2 mps 745 mmHg 76%
13:00 +14°C° 0.3 mm 2 mps 745 mmHg 73%
14:00 +14°C° 0.3 mm 3 mps 745 mmHg 70%
15:00 +13°C° 0.2 mm 3 mps 745 mmHg 74%
16:00 +12°C° 0.2 mm 3 mps 745 mmHg 79%
17:00 +11°C° 0.2 mm 3 mps 745 mmHg 83%
18:00 +11°C° 0.4 mm 3 mps 745 mmHg 86%
19:00 +10°C° 0.4 mm 3 mps 746 mmHg 88%
20:00 +10°C° 0.4 mm 2 mps 746 mmHg 90%
21:00 +10°C° 0.1 mm 3 mps 746 mmHg 90%
22:00 +8°C° 0.1 mm 4 mps 746 mmHg 90%
23:00 +8°C° 0.1 mm 4 mps 746 mmHg 90%

16 April, Friday

Time Temperature Precipitation Wind Pressure Humidity
00:00 +8°C° 0 mm 5 mps 746 mmHg 90%
01:00 +7°C° 0 mm 5 mps 746 mmHg 89%
02:00 +7°C° 0 mm 5 mps 746 mmHg 89%
03:00 +6°C° 0 mm 5 mps 746 mmHg 90%
04:00 +6°C° 0 mm 5 mps 746 mmHg 90%
05:00 +6°C° 0 mm 5 mps 746 mmHg 91%
06:00 +6°C° 0.1 mm 5 mps 747 mmHg 89%
07:00 +7°C° 0.1 mm 5 mps 747 mmHg 87%
08:00 +7°C° 0.1 mm 5 mps 747 mmHg 85%
09:00 +8°C° 0 mm 5 mps 747 mmHg 81%
10:00 +9°C° 0 mm 5 mps 747 mmHg 76%
11:00 +10°C° 0 mm 5 mps 748 mmHg 72%
12:00 +10°C° 0.1 mm 5 mps 748 mmHg 74%
13:00 +10°C° 0.1 mm 5 mps 748 mmHg 77%
14:00 +9°C° 0.1 mm 5 mps 748 mmHg 79%
15:00 +9°C° 0.1 mm 5 mps 748 mmHg 80%
16:00 +9°C° 0.1 mm 5 mps 748 mmHg 81%
17:00 +9°C° 0.1 mm 5 mps 749 mmHg 82%
18:00 +9°C° 0 mm 5 mps 749 mmHg 80%
19:00 +8°C° 0 mm 5 mps 749 mmHg 79%
20:00 +8°C° 0 mm 5 mps 750 mmHg 78%
21:00 +8°C° 0 mm 5 mps 750 mmHg 77%
22:00 +7°C° 0 mm 5 mps 750 mmHg 75%
23:00 +6°C° 0 mm 5 mps 751 mmHg 74%

17 April, Saturday

Time Temperature Precipitation Wind Pressure Humidity
00:00 +6°C° 0 mm 5 mps 751 mmHg 74%
01:00 +5°C° 0 mm 5 mps 751 mmHg 74%
02:00 +5°C° 0 mm 5 mps 751 mmHg 74%
03:00 +3°C° 0 mm 5 mps 752 mmHg 74%
04:00 +4°C° 0 mm 4 mps 752 mmHg 75%
05:00 +3°C° 0 mm 4 mps 752 mmHg 76%
06:00 +4°C° 0 mm 4 mps 753 mmHg 71%
07:00 +5°C° 0 mm 5 mps 753 mmHg 67%
08:00 +6°C° 0 mm 5 mps 753 mmHg 62%
09:00 +7°C° 0 mm 5 mps 753 mmHg 55%
10:00 +9°C° 0 mm 5 mps 754 mmHg 49%
11:00 +10°C° 0 mm 5 mps 754 mmHg 42%
12:00 +12°C° 0 mm 5 mps 754 mmHg 41%
13:00 +12°C° 0 mm 5 mps 754 mmHg 39%
14:00 +13°C° 0 mm 5 mps 754 mmHg 37%
15:00 +12°C° 0 mm 5 mps 754 mmHg 40%
16:00 +12°C° 0 mm 5 mps 754 mmHg 42%
17:00 +12°C° 0 mm 4 mps 754 mmHg 45%
18:00 +10°C° 0 mm 4 mps 755 mmHg 50%
19:00 +9°C° 0 mm 3 mps 755 mmHg 55%
20:00 +7°C° 0 mm 3 mps 756 mmHg 60%
21:00 +7°C° 0 mm 3 mps 756 mmHg 63%
22:00 +5°C° 0 mm 3 mps 756 mmHg 66%
23:00 +4°C° 0 mm 3 mps 756 mmHg 70%

18 April, Sunday

Time Temperature Precipitation Wind Pressure Humidity
00:00 +4°C° 0 mm 3 mps 756 mmHg 73%
01:00 +3°C° 0 mm 3 mps 757 mmHg 76%
02:00 +3°C° 0 mm 3 mps 757 mmHg 78%
03:00 +2°C° 0 mm 3 mps 757 mmHg 80%
04:00 +3°C° 0 mm 2 mps 757 mmHg 81%
05:00 +2°C° 0 mm 2 mps 757 mmHg 83%
06:00 +3°C° 0 mm 3 mps 758 mmHg 74%
07:00 +4°C° 0 mm 3 mps 758 mmHg 64%
08:00 +7°C° 0 mm 3 mps 758 mmHg 55%
09:00 +8°C° 0 mm 3 mps 758 mmHg 50%
10:00 +10°C° 0 mm 4 mps 758 mmHg 45%
11:00 +11°C° 0 mm 4 mps 758 mmHg 41%
12:00 +12°C° 0 mm 3 mps 758 mmHg 38%
13:00 +12°C° 0 mm 3 mps 758 mmHg 36%
14:00 +13°C° 0 mm 3 mps 758 mmHg 34%
15:00 +13°C° 0 mm 3 mps 757 mmHg 36%
16:00 +12°C° 0 mm 3 mps 757 mmHg 38%
17:00 +13°C° 0 mm 2 mps 757 mmHg 40%
18:00 +10°C° 0 mm 2 mps 757 mmHg 47%
19:00 +9°C° 0 mm 2 mps 757 mmHg 53%
20:00 +7°C° 0 mm 2 mps 757 mmHg 60%
21:00 +6°C° 0 mm 2 mps 758 mmHg 63%
22:00 +6°C° 0 mm 2 mps 758 mmHg 66%
23:00 +5°C° 0 mm 2 mps 758 mmHg 69%
Show more